Zurück zum Katalog

MOLNIYA 3-40

AktivKommunikationHEO
NORAD 21196·PAYLOAD·🇷🇺 Russia

Gestartet Mar 22, 1991 von Plesetsk Cosmodrome

Loading…

Nächste Überflüge (nächste 24 Stunden)

TLE

AktuellSource: Space-Track

Epoche: Sep 13, 2026, 00:40 UTC

1 21196U 91022A   26256.02846174  .00001150  00000-0  00000-0 0  9993
2 21196  64.7118 181.2980 6454028 252.3903  31.3938  2.03001583261121

Verfolge MOLNIYA 3-40 in Echtzeit mit AllMySat

Download on the App Store